| time (UTC) | temp C | wind direction | speed KPH | gust KPH | rain 1hr cm | rain 24hr cm | rain mn cm | humidity % | barometer mb |
| 20260904042534 | 21 | 168 | 11.3 | 12.9 | 0.05 | 0.56 | 0.00 | 90 | 1014.0 |
| 20260904042035 | 21 | 180 | 8.0 | 11.3 | 0.08 | 0.56 | 0.00 | 89 | 1014.2 |
| 20260904041537 | 21 | 161 | 4.8 | 8.0 | 0.08 | 0.56 | 0.00 | 90 | 1014.1 |
| 20260904041035 | 21 | 138 | 0.0 | 8.0 | 0.08 | 0.56 | 0.00 | 90 | 1014.1 |
| 20260904040557 | 21 | 138 | 1.6 | 14.5 | 0.10 | 0.56 | 0.00 | 89 | 1014.2 |
| 20260904040034 | 21 | 144 | 8.0 | 14.5 | 0.10 | 0.56 | 0.00 | 89 | 1014.0 |
| 20260904035557 | 21 | 174 | 6.4 | 9.7 | 0.13 | 0.56 | 0.56 | 88 | 1014.3 |
| 20260904035036 | 21 | 144 | 4.8 | 6.4 | 0.13 | 0.56 | 0.56 | 88 | 1014.5 |
| 20260904034532 | 22 | 144 | 1.6 | 12.9 | 0.15 | 0.56 | 0.56 | 88 | 1014.6 |
| 20260904034030 | 22 | 138 | 8.0 | 14.5 | 0.15 | 0.56 | 0.56 | 88 | 1014.7 |
| 20260904033551 | 22 | 132 | 9.7 | 14.5 | 0.18 | 0.56 | 0.56 | 87 | 1014.9 |
| 20260904033030 | 22 | 128 | 9.7 | 14.5 | 0.18 | 0.53 | 0.53 | 86 | 1014.9 |
| 20260904032526 | 22 | 196 | 1.6 | 9.7 | 0.18 | 0.51 | 0.51 | 87 | 1015.1 |
| 20260904032051 | 22 | 196 | 1.6 | 9.7 | 0.18 | 0.48 | 0.48 | 86 | 1015.3 |
| 20260904031527 | 22 | 185 | 3.2 | 9.7 | 0.18 | 0.48 | 0.48 | 86 | 1015.8 |
| 20260904031032 | 22 | 185 | 8.0 | 9.7 | 0.18 | 0.48 | 0.48 | 87 | 1015.9 |
| 20260904030529 | 22 | 255 | 1.6 | 12.9 | 0.15 | 0.46 | 0.46 | 86 | 1016.1 |
| 20260904030029 | 22 | 255 | 0.0 | 12.9 | 0.18 | 0.46 | 0.46 | 85 | 1016.2 |
| 20260904025551 | 22 | 264 | 1.6 | 14.5 | 0.15 | 0.43 | 0.43 | 85 | 1016.3 |
| 20260904025029 | 22 | 278 | 6.4 | 14.5 | 0.15 | 0.43 | 0.43 | 85 | 1016.3 |
| 20260904024547 | 23 | 269 | 1.6 | 8.0 | 0.13 | 0.41 | 0.41 | 86 | 1016.2 |
| 20260904024025 | 23 | 247 | 1.6 | 8.0 | 0.13 | 0.41 | 0.41 | 87 | 1016.2 |
| 20260904023542 | 23 | 151 | 1.6 | 8.0 | 0.10 | 0.38 | 0.38 | 87 | 1016.1 |
| 20260904023042 | 23 | 187 | 3.2 | 9.7 | 0.08 | 0.36 | 0.36 | 87 | 1016.2 |
| 20260904022539 | 23 | 187 | 6.4 | 9.7 | 0.05 | 0.33 | 0.33 | 85 | 1016.1 |
| 20260904022038 | 23 | 215 | 3.2 | 11.3 | 0.05 | 0.30 | 0.30 | 85 | 1016.0 |
| 20260904021535 | 23 | 184 | 4.8 | 8.0 | 0.05 | 0.30 | 0.30 | 84 | 1015.7 |
| 20260904021033 | 23 | 181 | 4.8 | 12.9 | 0.05 | 0.30 | 0.30 | 83 | 1015.7 |
| 20260904020532 | 23 | 184 | 3.2 | 16.1 | 0.05 | 0.30 | 0.30 | 82 | 1015.2 |
| 20260904020031 | 23 | 175 | 9.7 | 20.9 | 0.03 | 0.28 | 0.28 | 81 | 1014.6 |
| 20260904015529 | 24 | 152 | 17.7 | 20.9 | 0.03 | 0.28 | 0.28 | 81 | 1014.7 |
| 20260904015031 | 24 | 154 | 9.7 | 17.7 | 0.03 | 0.28 | 0.28 | 80 | 1014.3 |
| 20260904014527 | 24 | 143 | 4.8 | 27.4 | 0.03 | 0.28 | 0.28 | 77 | 1014.0 |
| 20260904014051 | 24 | 222 | 8.0 | 32.2 | 0.03 | 0.28 | 0.28 | 77 | 1014.3 |
| 20260904013528 | 25 | 299 | 16.1 | 32.2 | 0.03 | 0.28 | 0.28 | 77 | 1014.0 |
| 20260904013028 | 25 | 338 | 12.9 | 45.1 | 0.03 | 0.28 | 0.28 | 77 | 1013.8 |
| 20260904012525 | 26 | 274 | 22.5 | 56.3 | 0.03 | 0.28 | 0.28 | 76 | 1014.8 |
| 20260904012044 | 26 | 272 | 24.1 | 56.3 | 0.00 | 0.25 | 0.25 | 82 | 1015.1 |
| 20260904011543 | 27 | 148 | 0.0 | 3.2 | 0.00 | 0.25 | 0.25 | 85 | 1014.3 |
| 20260904011041 | 27 | 148 | 0.0 | 0.0 | 0.00 | 0.25 | 0.25 | 84 | 1014.1 |
| 20260904010538 | 27 | 148 | 0.0 | 1.6 | 0.00 | 0.25 | 0.25 | 84 | 1013.9 |
| 20260904010037 | 27 | 148 | 0.0 | 3.2 | 0.00 | 0.25 | 0.25 | 84 | 1013.7 |
| 20260904005535 | 27 | 148 | 0.0 | 8.0 | 0.00 | 0.25 | 0.25 | 82 | 1013.8 |
| 20260904005033 | 27 | 148 | 3.2 | 8.0 | 0.00 | 0.25 | 0.25 | 82 | 1013.8 |
| 20260904004529 | 27 | 131 | 3.2 | 4.8 | 0.00 | 0.25 | 0.25 | 81 | 1013.8 |
| 20260904004052 | 27 | 131 | 3.2 | 4.8 | 0.00 | 0.25 | 0.25 | 81 | 1013.7 |
| 20260904003529 | 27 | 131 | 1.6 | 4.8 | 0.00 | 0.25 | 0.25 | 81 | 1013.7 |
| 20260904003054 | 27 | 131 | 0.0 | 8.0 | 0.00 | 0.25 | 0.25 | 81 | 1013.8 |
| 20260904002530 | 27 | 131 | 4.8 | 8.0 | 0.00 | 0.25 | 0.25 | 80 | 1013.7 |
| 20260904002033 | 27 | 141 | 4.8 | 8.0 | 0.00 | 0.25 | 0.25 | 80 | 1013.7 |
| 20260904001531 | 27 | 175 | 3.2 | 6.4 | 0.00 | 0.25 | 0.25 | 80 | 1013.7 |
| 20260904001030 | 27 | 175 | 3.2 | 6.4 | 0.00 | 0.25 | 0.25 | 79 | 1013.9 |
| 20260904000552 | 28 | 175 | 3.2 | 6.4 | 0.00 | 0.25 | 0.25 | 79 | 1013.9 |
| 20260904000031 | 28 | 175 | 3.2 | 6.4 | 0.00 | 0.25 | 0.25 | 79 | 1014.2 |
| 20260903235528 | 28 | 175 | 4.8 | 6.4 | 0.00 | 0.25 | 0.25 | 79 | 1014.2 |
| 20260903235027 | 28 | 178 | 3.2 | 4.8 | 0.00 | 0.25 | 0.25 | 78 | 1014.1 |
| 20260903234524 | 28 | 178 | 3.2 | 4.8 | 0.00 | 0.25 | 0.25 | 78 | 1014.2 |
| 20260903234042 | 28 | 178 | 3.2 | 6.4 | 0.00 | 0.25 | 0.25 | 77 | 1014.3 |
| 20260903233540 | 28 | 178 | 4.8 | 6.4 | 0.00 | 0.25 | 0.25 | 77 | 1014.4 |
| 20260903233039 | 28 | 140 | 3.2 | 4.8 | 0.00 | 0.25 | 0.25 | 76 | 1014.3 |
| 20260903232601 | 28 | 140 | 3.2 | 4.8 | 0.00 | 0.25 | 0.25 | 76 | 1014.0 |
| 20260903232039 | 28 | 140 | 3.2 | 4.8 | 0.00 | 0.25 | 0.25 | 75 | 1013.9 |
| 20260903231536 | 28 | 140 | 0.0 | 8.0 | 0.00 | 0.25 | 0.25 | 75 | 1013.6 |
| 20260903231034 | 29 | 119 | 3.2 | 8.0 | 0.00 | 0.25 | 0.25 | 74 | 1013.3 |
| 20260903230531 | 29 | 128 | 4.8 | 9.7 | 0.00 | 0.25 | 0.25 | 74 | 1013.1 |
| 20260903230030 | 29 | 182 | 3.2 | 4.8 | 0.00 | 0.25 | 0.25 | 73 | 1013.2 |
| 20260903225532 | 29 | 182 | 3.2 | 4.8 | 0.00 | 0.25 | 0.25 | 73 | 1013.3 |
| 20260903225052 | 29 | 182 | 1.6 | 8.0 | 0.00 | 0.25 | 0.25 | 73 | 1013.4 |
| 20260903224528 | 30 | 182 | 3.2 | 8.0 | 0.00 | 0.25 | 0.25 | 72 | 1013.4 |
| 20260903224027 | 30 | 182 | 4.8 | 8.0 | 0.00 | 0.25 | 0.25 | 71 | 1013.4 |
| 20260903223524 | 30 | 182 | 4.8 | 9.7 | 0.00 | 0.25 | 0.25 | 71 | 1013.3 |
| 20260903223043 | 30 | 164 | 6.4 | 9.7 | 0.00 | 0.25 | 0.25 | 71 | 1013.3 |
| 20260903222540 | 30 | 167 | 6.4 | 11.3 | 0.00 | 0.25 | 0.25 | 70 | 1013.4 |
| 20260903222040 | 30 | 186 | 4.8 | 11.3 | 0.00 | 0.25 | 0.25 | 70 | 1013.4 |
| 20260903221535 | 30 | 178 | 8.0 | 14.5 | 0.00 | 0.25 | 0.25 | 69 | 1013.2 |
| 20260903221034 | 30 | 168 | 9.7 | 14.5 | 0.00 | 0.25 | 0.25 | 69 | 1013.2 |
| 20260903220531 | 30 | 183 | 6.4 | 12.9 | 0.00 | 0.25 | 0.25 | 69 | 1013.3 |
| 20260903220031 | 30 | 130 | 8.0 | 12.9 | 0.00 | 0.25 | 0.25 | 68 | 1013.3 |
| 20260903215531 | 30 | 132 | 9.7 | 12.9 | 0.00 | 0.25 | 0.25 | 68 | 1013.1 |
| 20260903215031 | 30 | 171 | 8.0 | 12.9 | 0.00 | 0.25 | 0.25 | 67 | 1013.2 |
| 20260903214529 | 31 | 161 | 9.7 | 14.5 | 0.00 | 0.25 | 0.25 | 67 | 1013.2 |
| 20260903214029 | 31 | 188 | 9.7 | 19.3 | 0.00 | 0.25 | 0.25 | 66 | 1013.2 |
| 20260903213552 | 31 | 195 | 14.5 | 19.3 | 0.00 | 0.25 | 0.25 | 65 | 1013.3 |
| 20260903213033 | 31 | 190 | 8.0 | 14.5 | 0.00 | 0.25 | 0.25 | 66 | 1013.2 |
| 20260903212532 | 31 | 150 | 11.3 | 14.5 | 0.00 | 0.25 | 0.25 | 66 | 1013.3 |
| 20260903212056 | 31 | 161 | 11.3 | 16.1 | 0.00 | 0.25 | 0.25 | 66 | 1013.3 |
| 20260903211534 | 31 | 138 | 9.7 | 16.1 | 0.00 | 0.25 | 0.25 | 65 | 1013.4 |
| 20260903211031 | 31 | 155 | 8.0 | 16.1 | 0.00 | 0.25 | 0.25 | 66 | 1013.2 |
| 20260903210530 | 31 | 168 | 9.7 | 17.7 | 0.00 | 0.25 | 0.25 | 67 | 1013.3 |
| 20260903210028 | 30 | 205 | 9.7 | 17.7 | 0.00 | 0.25 | 0.25 | 66 | 1013.4 |
| 20260903205526 | 30 | 168 | 12.9 | 17.7 | 0.00 | 0.25 | 0.25 | 67 | 1013.3 |
| 20260903205025 | 30 | 183 | 12.9 | 17.7 | 0.00 | 0.25 | 0.25 | 66 | 1013.3 |
| 20260903204543 | 30 | 189 | 11.3 | 20.9 | 0.00 | 0.25 | 0.25 | 66 | 1013.4 |
| 20260903204043 | 30 | 178 | 14.5 | 20.9 | 0.00 | 0.25 | 0.25 | 67 | 1013.5 |
| 20260903203541 | 31 | 200 | 16.1 | 20.9 | 0.00 | 0.25 | 0.25 | 65 | 1013.7 |
| 20260903203040 | 31 | 209 | 14.5 | 17.7 | 0.00 | 0.25 | 0.25 | 67 | 1013.5 |
| 20260903202539 | 31 | 174 | 11.3 | 24.1 | 0.00 | 0.25 | 0.25 | 66 | 1013.5 |
| 20260903202103 | 31 | 236 | 6.4 | 24.1 | 0.00 | 0.25 | 0.25 | 66 | 1013.5 |
| 20260903201540 | 30 | 180 | 14.5 | 22.5 | 0.00 | 0.25 | 0.25 | 66 | 1013.6 |
| 20260903201042 | 31 | 194 | 16.1 | 20.9 | 0.00 | 0.25 | 0.25 | 65 | 1013.9 |
| 20260903200541 | 30 | 168 | 17.7 | 24.1 | 0.00 | 0.25 | 0.25 | 65 | 1013.9 |
| 20260903200039 | 31 | 185 | 16.1 | 24.1 | 0.00 | 0.25 | 0.25 | 66 | 1013.9 |
| 20260903195535 | 31 | 160 | 11.3 | 17.7 | 0.00 | 0.25 | 0.25 | 65 | 1013.9 |
| 20260903195036 | 30 | 161 | 11.3 | 20.9 | 0.00 | 0.25 | 0.25 | 67 | 1013.9 |
| 20260903194531 | 30 | 217 | 14.5 | 20.9 | 0.00 | 0.25 | 0.25 | 64 | 1014.1 |
| 20260903194031 | 31 | 178 | 14.5 | 20.9 | 0.00 | 0.25 | 0.25 | 66 | 1014.1 |
| 20260903193553 | 30 | 153 | 11.3 | 16.1 | 0.00 | 0.25 | 0.25 | 66 | 1014.1 |
| 20260903193031 | 30 | 191 | 8.0 | 19.3 | 0.00 | 0.25 | 0.25 | 66 | 1014.3 |
| 20260903192529 | 30 | 219 | 9.7 | 19.3 | 0.00 | 0.25 | 0.25 | 65 | 1014.3 |
| 20260903192028 | 30 | 205 | 8.0 | 20.9 | 0.00 | 0.25 | 0.25 | 65 | 1014.4 |
| 20260903191526 | 30 | 210 | 9.7 | 20.9 | 0.00 | 0.25 | 0.25 | 68 | 1014.4 |
| 20260903191025 | 30 | 183 | 12.9 | 19.3 | 0.00 | 0.25 | 0.25 | 67 | 1014.7 |
| 20260903190543 | 29 | 186 | 8.0 | 17.7 | 0.00 | 0.25 | 0.25 | 68 | 1014.7 |
| 20260903190026 | 29 | 238 | 14.5 | 19.3 | 0.00 | 0.25 | 0.25 | 67 | 1014.8 |
| 20260903185544 | 29 | 209 | 4.8 | 14.5 | 0.00 | 0.25 | 0.25 | 67 | 1014.9 |
| 20260903185044 | 29 | 227 | 4.8 | 20.9 | 0.00 | 0.25 | 0.25 | 70 | 1015.0 |
| 20260903184541 | 29 | 191 | 16.1 | 20.9 | 0.00 | 0.25 | 0.25 | 69 | 1015.1 |
| 20260903184041 | 28 | 188 | 16.1 | 20.9 | 0.00 | 0.25 | 0.25 | 70 | 1015.1 |
| 20260903183537 | 28 | 232 | 12.9 | 25.7 | 0.00 | 0.25 | 0.25 | 72 | 1015.2 |
| 20260903183036 | 28 | 180 | 17.7 | 25.7 | 0.00 | 0.25 | 0.25 | 71 | 1015.3 |
| 20260903182532 | 28 | 190 | 14.5 | 22.5 | 0.00 | 0.25 | 0.25 | 72 | 1015.3 |
| 20260903182032 | 28 | 201 | 14.5 | 22.5 | 0.00 | 0.25 | 0.25 | 71 | 1015.4 |
| 20260903181529 | 28 | 213 | 14.5 | 25.7 | 0.00 | 0.25 | 0.25 | 71 | 1015.4 |
| 20260903181028 | 28 | 181 | 12.9 | 25.7 | 0.00 | 0.25 | 0.25 | 71 | 1015.4 |
| 20260903180526 | 28 | 153 | 11.3 | 24.1 | 0.00 | 0.25 | 0.25 | 73 | 1015.4 |
| 20260903180051 | 28 | 251 | 6.4 | 22.5 | 0.00 | 0.25 | 0.25 | 74 | 1015.5 |
| 20260903175528 | 28 | 203 | 11.3 | 24.1 | 0.00 | 0.28 | 0.25 | 73 | 1015.6 |
| 20260903175052 | 27 | 168 | 12.9 | 27.4 | 0.00 | 0.28 | 0.25 | 72 | 1015.6 |
| 20260903174549 | 27 | 221 | 8.0 | 20.9 | 0.00 | 0.28 | 0.25 | 70 | 1015.8 |
| 20260903174027 | 27 | 236 | 8.0 | 22.5 | 0.00 | 0.28 | 0.25 | 73 | 1015.8 |
| 20260903173530 | 27 | 198 | 11.3 | 22.5 | 0.00 | 0.28 | 0.25 | 74 | 1015.9 |
| 20260903173049 | 27 | 180 | 9.7 | 20.9 | 0.00 | 0.28 | 0.25 | 75 | 1016.1 |
| 20260903172546 | 26 | 192 | 9.7 | 20.9 | 0.00 | 0.28 | 0.25 | 76 | 1016.0 |
| 20260903172044 | 26 | 194 | 12.9 | 20.9 | 0.00 | 0.28 | 0.25 | 78 | 1016.2 |
| 20260903171541 | 26 | 207 | 11.3 | 20.9 | 0.00 | 0.28 | 0.25 | 77 | 1016.3 |
| 20260903171040 | 25 | 173 | 17.7 | 24.1 | 0.00 | 0.28 | 0.25 | 78 | 1016.4 |
| 20260903170538 | 25 | 184 | 17.7 | 24.1 | 0.00 | 0.28 | 0.25 | 76 | 1016.4 |
| 20260903170037 | 25 | 194 | 9.7 | 19.3 | 0.00 | 0.28 | 0.25 | 79 | 1016.3 |
| 20260903165535 | 25 | 174 | 12.9 | 20.9 | 0.00 | 0.97 | 0.25 | 79 | 1016.5 |
| 20260903165034 | 25 | 191 | 14.5 | 20.9 | 0.00 | 0.97 | 0.25 | 82 | 1016.5 |
| 20260903164557 | 24 | 176 | 11.3 | 19.3 | 0.00 | 0.97 | 0.25 | 83 | 1016.7 |
| 20260903164034 | 24 | 186 | 8.0 | 19.3 | 0.00 | 0.97 | 0.25 | 83 | 1016.7 |
| 20260903163529 | 23 | 207 | 12.9 | 19.3 | 0.00 | 0.97 | 0.25 | 84 | 1016.8 |
| 20260903163055 | 23 | 232 | 11.3 | 16.1 | 0.00 | 0.97 | 0.25 | 84 | 1017.0 |
| 20260903162555 | 23 | 187 | 11.3 | 16.1 | 0.00 | 0.97 | 0.25 | 85 | 1017.0 |
| 20260903162034 | 23 | 173 | 9.7 | 14.5 | 0.00 | 0.97 | 0.25 | 86 | 1016.9 |
| 20260903161551 | 23 | 220 | 4.8 | 19.3 | 0.00 | 0.97 | 0.25 | 86 | 1017.0 |
| 20260903161054 | 23 | 192 | 12.9 | 19.3 | 0.00 | 0.97 | 0.25 | 85 | 1017.0 |
| 20260903160553 | 23 | 183 | 14.5 | 19.3 | 0.00 | 0.97 | 0.25 | 89 | 1017.1 |
| 20260903160031 | 22 | 267 | 11.3 | 19.3 | 0.00 | 0.97 | 0.25 | 89 | 1017.1 |
| 20260903155529 | 22 | 184 | 12.9 | 17.7 | 0.00 | 1.07 | 0.25 | 89 | 1017.4 |
| 20260903155028 | 22 | 183 | 9.7 | 20.9 | 0.00 | 1.07 | 0.25 | 89 | 1017.6 |
| 20260903154529 | 22 | 205 | 8.0 | 20.9 | 0.03 | 1.07 | 0.25 | 90 | 1017.8 |
| 20260903154027 | 22 | 224 | 6.4 | 22.5 | 0.03 | 1.07 | 0.25 | 90 | 1017.9 |
| 20260903153525 | 22 | 210 | 6.4 | 25.7 | 0.03 | 1.07 | 0.25 | 89 | 1018.1 |
| 20260903153043 | 22 | 240 | 11.3 | 25.7 | 0.05 | 1.07 | 0.25 | 90 | 1018.2 |
| 20260903152540 | 22 | 252 | 9.7 | 19.3 | 0.08 | 1.07 | 0.25 | 90 | 1018.1 |